Back to catalog

ARIANE 1 DEB

AliveSSO
NORAD 35408·DEBRIS·🇫🇷 France

Launched Feb 22, 1986 from Guiana Space Centre

Loading…

Next Passes (next 24 hours)

TLE

FreshSource: Space-Track

Epoch: Sep 14, 2026, 01:17 UTC

1 35408U 86019FL  26257.05359727  .00000281  00000-0  12664-3 0  9997
2 35408  98.3244 292.4334 0030088 258.8037 132.0029 14.29139604 37850

Track ARIANE 1 DEB in real time with AllMySat

Download on the App Store